TimeCST,TemperatureF,Dew PointF,Humidity,Sea Level PressureIn,VisibilityMPH,Wind Direction,Wind SpeedMPH,Gust SpeedMPH,PrecipitationIn,Events,Conditions,WindDirDegrees,DateUTC
12:15 AM,41.2,41.2,100,29.92,1.0,Calm,Calm,-,N/A,,Overcast,0,2012-11-07 06:15:00
12:35 AM,41.2,41.2,100,29.91,1.5,Calm,Calm,-,N/A,,Light Drizzle,0,2012-11-07 06:35:00
12:55 AM,41.5,41.5,100,29.91,2.0,Calm,Calm,-,N/A,Rain,Light Rain,0,2012-11-07 06:55:00
1:15 AM,41.5,41.5,100,29.91,1.8,Calm,Calm,-,N/A,,Overcast,0,2012-11-07 07:15:00
1:35 AM,41.9,41.9,100,29.90,2.5,Calm,Calm,-,N/A,,Overcast,0,2012-11-07 07:35:00
1:55 AM,41.9,41.9,100,29.91,2.5,Calm,Calm,-,N/A,,Overcast,0,2012-11-07 07:55:00
2:15 AM,41.9,41.9,100,29.90,2.5,Calm,Calm,-,N/A,,Overcast,0,2012-11-07 08:15:00
7:15 AM,-9999,-9999,N/A,29.93,2.0,Calm,Calm,-,N/A,,Overcast,0,2012-11-07 13:15:00
7:35 AM,-9999,-9999,N/A,29.93,2.5,Calm,Calm,-,N/A,Rain,Light Rain,0,2012-11-07 13:35:00
7:55 AM,-9999,-9999,N/A,29.93,3.0,Calm,Calm,-,N/A,Rain,Light Rain,0,2012-11-07 13:55:00
8:15 AM,-9999,-9999,N/A,29.94,3.0,Calm,Calm,-,N/A,,Overcast,0,2012-11-07 14:15:00
8:35 AM,43.7,43.7,100,29.94,3.0,Calm,Calm,-,N/A,,Overcast,0,2012-11-07 14:35:00
8:55 AM,43.9,43.9,100,29.95,2.5,Calm,Calm,-,0.01,Rain,Rain,0,2012-11-07 14:55:00
9:15 AM,44.1,44.1,100,29.95,4.0,Calm,Calm,-,N/A,,Drizzle,0,2012-11-07 15:15:00
9:35 AM,44.1,44.1,100,29.95,5.0,Calm,Calm,-,0.01,Rain,Rain,0,2012-11-07 15:35:00
10:15 AM,44.2,44.2,100,29.96,3.0,North,3.5,-,N/A,Rain,Light Rain,350,2012-11-07 16:15:00
10:35 AM,44.8,44.8,100,29.96,5.0,NNW,4.6,-,N/A,,Overcast,340,2012-11-07 16:35:00
10:55 AM,45.5,45.5,100,29.97,7.0,North,5.8,-,N/A,,Overcast,350,2012-11-07 16:55:00
11:15 AM,45.7,45.7,100,29.96,7.0,North,5.8,-,N/A,,Overcast,350,2012-11-07 17:15:00
11:35 AM,45.9,45.7,99,29.96,7.0,North,5.8,-,N/A,,Overcast,350,2012-11-07 17:35:00
12:15 PM,46.4,43.0,88,29.96,7.0,North,6.9,-,N/A,,Overcast,350,2012-11-07 18:15:00
12:35 PM,46.4,41.9,84,29.96,10.0,North,5.8,-,N/A,,Overcast,350,2012-11-07 18:35:00
1:15 PM,46.2,40.6,81,29.96,10.0,North,8.1,-,N/A,,Overcast,360,2012-11-07 19:15:00
1:35 PM,45.9,41.0,83,29.96,7.0,North,3.5,-,N/A,,Overcast,10,2012-11-07 19:35:00
1:55 PM,46.6,41.2,81,29.97,7.0,NNW,6.9,-,N/A,,Overcast,340,2012-11-07 19:55:00
2:15 PM,46.9,40.8,79,29.98,10.0,North,9.2,-,N/A,,Overcast,360,2012-11-07 20:15:00
2:35 PM,45.9,40.5,81,29.98,5.0,North,5.8,-,N/A,,Haze,350,2012-11-07 20:35:00
2:55 PM,45.7,40.5,82,30.00,7.0,North,5.8,-,N/A,,Overcast,350,2012-11-07 20:55:00
3:15 PM,46.4,39.9,78,30.00,10.0,North,4.6,-,N/A,,Overcast,350,2012-11-07 21:15:00
3:35 PM,46.4,39.7,78,30.01,10.0,North,6.9,-,N/A,,Overcast,350,2012-11-07 21:35:00
3:55 PM,46.0,40.3,80,30.02,7.0,North,4.6,-,N/A,,Overcast,360,2012-11-07 21:55:00
4:15 PM,45.7,40.1,81,30.03,7.0,North,5.8,-,N/A,,Overcast,360,2012-11-07 22:15:00
4:35 PM,45.5,40.1,81,30.03,7.0,North,3.5,-,N/A,,Overcast,360,2012-11-07 22:35:00
5:15 PM,45.1,39.4,80,30.06,10.0,North,6.9,-,N/A,,Overcast,360,2012-11-07 23:15:00
5:35 PM,45.0,39.2,80,30.07,10.0,North,5.8,-,N/A,,Overcast,360,2012-11-07 23:35:00
5:55 PM,44.8,39.2,81,30.08,10.0,North,5.8,-,N/A,,Overcast,360,2012-11-07 23:55:00
6:15 PM,44.6,39.2,81,30.09,10.0,NNW,4.6,-,N/A,,Overcast,340,2012-11-08 00:15:00
6:35 PM,44.8,38.8,80,30.09,10.0,Calm,Calm,-,N/A,,Overcast,0,2012-11-08 00:35:00
6:55 PM,44.6,39.2,81,30.09,10.0,NW,3.5,-,N/A,,Overcast,320,2012-11-08 00:55:00
7:15 PM,44.6,39.2,81,30.10,10.0,Calm,Calm,-,N/A,,Overcast,0,2012-11-08 01:15:00
7:35 PM,44.4,39.2,82,30.11,10.0,Calm,Calm,-,N/A,,Overcast,0,2012-11-08 01:35:00
7:55 PM,44.2,39.2,82,30.11,10.0,NW,3.5,-,N/A,,Overcast,310,2012-11-08 01:55:00
8:15 PM,44.2,39.2,82,30.12,10.0,NNW,3.5,-,N/A,,Overcast,330,2012-11-08 02:15:00
8:55 PM,43.9,39.2,84,30.13,10.0,Calm,Calm,-,N/A,,Overcast,0,2012-11-08 02:55:00
9:15 PM,43.9,39.2,84,30.12,10.0,Calm,Calm,-,N/A,,Overcast,0,2012-11-08 03:15:00
9:35 PM,43.7,39.0,84,30.12,10.0,Calm,Calm,-,N/A,,Overcast,0,2012-11-08 03:35:00
9:55 PM,43.2,39.0,85,30.13,10.0,Calm,Calm,-,N/A,,Overcast,0,2012-11-08 03:55:00
10:15 PM,42.1,40.5,94,30.13,7.0,Calm,Calm,-,N/A,,Overcast,0,2012-11-08 04:15:00
10:35 PM,41.5,41.5,100,30.13,7.0,Calm,Calm,-,N/A,,Overcast,0,2012-11-08 04:35:00
11:15 PM,40.1,40.1,100,30.13,5.0,Calm,Calm,-,N/A,,Scattered Clouds,0,2012-11-08 05:15:00
11:35 PM,38.3,38.3,100,30.13,4.0,Calm,Calm,-,N/A,,Clear,0,2012-11-08 05:35:00
11:55 PM,37.0,37.0,100,30.14,3.0,Calm,Calm,-,N/A,,Clear,0,2012-11-08 05:55:00